Location: Saluda
(35.2377°N, 82.3468°W)
Time: 16:39:34
(UTC+00:00)

SR - Pass Details

Date: 09 October 2022
Orbit: 577 x 874 km, 66.7° (Epoch: 05 December)

Event Time Altitude Azimuth Distance (km) Brightness Sun altitude
Rises 23:03:36 0° 169° (S) 3,390 ? -1.1°
Reaches altitude 10° 23:06:32 10° 155° (SSE) 2,487 ? -1.7°
Maximum altitude 23:10:55 23° 106° (ESE) 1,786 ? -2.6°
Drops below altitude 10° 23:15:22 10° 57° (ENE) 2,526 ? -3.5°
Sets 23:18:21 0° 43° (NE) 3,457 ? -4.1°
